Location: Alphen
(52.1351°N, 4.6549°E)
Time: 02:02:05
(UTC+00:00)

Cosmos 2292 Rocket - Pass Details

Date: 27 January 2021
Orbit: 380 x 1450 km, 83.0° (Epoch: 27 February)

Event Time Altitude Azimuth Distance (km) Brightness Sun altitude
Exits shadow 06:25:30 - 338° (NNW) 1,788 5.6 -9.8°
Reaches altitude 10° 06:26:22 10° 332° (NNW) 1,428 5.0 -9.6°
Maximum altitude 06:29:07 33° 266° (W) 710 3.4 -9.2°
Drops below altitude 10° 06:32:10 10° 200° (SSW) 1,585 5.7 -8.8°
Sets 06:34:30 0° 191° (S) 2,577 6.9 -8.4°
